Latest METARs, TAFs and NOTAMs for MGGT


---------------------------------------------------------------------------
	(OBSERVATIONS)
MGGT 211400Z 36012KT 9999 FEW014 BKN200 20/16 Q1025 A3027 VOLCA
MGGT 211300Z 03006KT 9999 FEW014 BKN200 18/16 Q1025 A3027 VOLCAN
    DE FUEGO EN ACTIVIDAD=
MGGT 211200Z 03006KT 9999 FEW014 BKN200 18/16 Q1024 A3024 VOLCAN
    DE FUEGO EN ACTIVIDAD=
MGGT 211100Z 03006KT 9999 SCT014 BKN200 18/17 Q1024 A3024=
---------------------------------------------------------------------------
	(TERMINAL AREA FORECAST)
MGGT 211100Z 2112/2212 36008KT 9999 SCT014 TX27/2120Z
    TN16/2112Z
    BECMG 2115/2117 03010KT SCT018
    TEMPO 2122/2124 8000 VCTSRA SCT018TCU FEW025CB
    BECMG 2200/2202 36008KT SCT016
    TEMPO 2200/2212 7000 RADZ BKN016 BKN080=
---------------------------------------------------------------------------
	(NOTAMS)


MGGT A0187/16 REF MGGT AD 2-27 ACFT STAND 3A CHG COORD 143513.74173N
    0903147.23383W. 01 FEB 17:30 2016 UNTIL PERM. CREATED: 01
    FEB 17:21 2016

MGGT A0188/16 REF MGGT AD 2-27 ACFT STAND 5A CHG COORD 143518.23955N
    0903145.69390W. 01 FEB 17:30 2016 UNTIL PERM. CREATED: 01
    JAN 15:31 2017

MGGT A0942/17 RWY 02/20 CLSD DUE MEN AND EQPT WORKING DUE MAINT.
    0500-1100, 01 JUL 05:00 2017 UNTIL 11 SEP 11:00 2017. CREATED:
    12 MAY 19:18 2017

MGGT A0971/17 AD GRASS CUTTING INPR AT GREEN AREA ACFT EXER CTN
    DUE MEN AND EQPT WORKING REQ ATC INSTRUCTIONS. DAILY 1500-2300,
    17 MAY 19:00 2017 UNTIL 08 SEP 23:00 2017. CREATED: 17 MAY
    18:14 2017

MGGT A1018/17 RNAV X RWY 02 PROCEDURE NOT AVBL RNAV W RWY 02
    PROCEDURE NOT AVBL RNAV X RWY 20 PROCEDURE GT599 NOT AVBL.
    23 MAY 18:04 2017 UNTIL 23 AUG 23:59 2017. CREATED: 23 MAY
    18:06 2017

MGGT A1037/17 REIL RWY 02/20 U/S DUE MAINT. 25 MAY 22:00 2017
    UNTIL 25 AUG 22:00 2017. CREATED: 25 MAY 21:55 2017

MGGT A1145/17 PAPI RWY 20 U/S. 15 JUN 00:00 2017 UNTIL 15 SEP
    23:59 2017. CREATED: 14 JUN 21:56 2017

MGGT A1194/17 ILS RWY 02 ID IAAI FREQ 110.1MHZ OPR BUT OSCILLANTING
    BTN 1.8NM DME AND 1NM FM GLIDE SLOPE. 21 JUN 22:47 2017 UNTIL
    21 SEP 23:59 2017. CREATED: 21 JUN 23:02 2017

MGGT A1243/17 AD LIMITED FOR GENERAL AVIATION CAT A AND B FIX
    WING ONLY. JUL AUG SEP 1101-1300, 01 JUL 11:01 2017 UNTIL
    11 SEP 13:00 2017. CREATED: 30 JUN 22:31 2017

MGGT A1255/17 FIRE AND RESCUE CAT 7 CHG TO CAT 9. JUL AUG SEP
    ONLY DAYS TUE TO WED 2300-0500, 05 JUL 01:55 2017 UNTIL 27
    SEP 05:00 2017. CREATED: 05 JUL 01:56 2017

MGGT A2953/15 INST APCH PROC VOR Y RWY 02 VOR Z RWY 02 FAF ULDES
    CHG ALT TO 6300 FT. 21 DEC 20:49 2015 UNTIL PERM. CREATED:
    21 DEC 20:49 2015

MGGT A2954/15 INST APCH PROC ILS Y RWY 02 ILS Z RWY 02 FAP VILAN
    CHG COORD TO 143004.10N 0903313.93W. 21 DEC 20:50 2015 UNTIL
    PERM. CREATED: 21 DEC 20:50 2015

MGGT F0011/08 [DEFENSE ENERGY SUPPORT CENTER ADVISORY] FUEL AVAILABILITY
    LIMITED BEGINNING MAY 3, 2008 DAILY VOLUME WILL BE REDUCED
    FOR GOVERNMENT CONTRACT FUEL (SP0600-05-D-0003). CALL AHEAD
    TO ENURE FUEL AVAILABILITY. STAFF DUTY OFFICER #DSN 427-8420.
    05 AUG 01:17 2020 UNTIL 05 AUG 30:17 2020

MGGT F0014/08 [DEFENSE ENERGY SUPPORT CENTER ADVISORY] FUEL AVAILABILITY
    LIMITED QUANTITY UNTIL FURTHER NOTICE. PHONE AHEAD FOR FUEL
    AVAILABILITY. 05 AUG 08:12 2020 UNTIL 06 AUG 10:12 2020

MGGT F0044/11 [DEFENSE ENERGY SUPPORT CENTER ADVISORY] FUEL AVAILABILITY
    HOURS OF SERVICE ARE NEW FUELING HOURS FROM 09:00 AM TO 4:00
    PM. ALL FUELINGS OUTSIDE THIS SCHEDULE, WILL BE PROVIDED
    AT THE SOUTH INTERNATIONAL RAMP SO THAT ANY PERMISSION MUST
    BE OBTAINED FROM DGAC (DIRECCION GENERAL DE AERONAUTICA CIVIL),
    BY ALL CUSTOMERS IN CASE IT IS NECESSARY. DLA ENERGY DUTY
    OFFICER'S TELEPHONE NUMBER IS 703-767-8420, DSN 427-8420.
    06 NOV 14:14 2020 UNTIL 08 NOV 30:14 2020

---------------------------------------------------------------------------